Flag for Germany Weather past 2 weeks in Helmstedt, Lower Saxony, Germany

Now
34 °F

Passing clouds.


Feels Like: 26 °F
Forecast: 33 / 44 °F
Wind: 10 mph from Southwest

Location: Braunschweig

Current Time: Mar 4, 2015 at 8:30:06 AM

Latest Report: Mar 4, 2015 at 7:50 AM


Visibility: N/A

Pressure: 30.07 "Hg

Humidity: 93%

Dew point: 32 °F

Location of HelmstedtLocation

Historic Weather in Helmstedt — Graph

°F

Helmstedt temperature yesterday

Maximum temperature yesterday: 45 °F (at 1:20 PM)
Minimum temperature yesterday: 36 °F (at 6:50 AM)
Average temperature yesterday: 41 °F

Past Weeks' High & Low Weather Summary

 TemperatureHumidityPressure
High52 °F (Feb 26, 3:20 PM)100% (Feb 17, 7:20 AM)30.74 "Hg (Feb 17, 7:20 AM)
Low27 °F (Feb 26, 6:50 AM)47% (Feb 26, 3:20 PM)29.33 "Hg (Feb 21, 9:50 AM)
Average40 °F80%29.92 "Hg
* Reported Feb 17 7:20 AM — Mar 4 7:20 AM, Helmstedt, Weather by CustomWeather, © 2015

Note: Actual official high and low records may vary slightly from our data, if they occured in-between our weather recording intervals... More about our weather records

Advertising

Helmstedt weather history for previous 24 hours

 ConditionsComfort  
Time TempWeatherWind HumidityBarometerVisibility
7:20 AM
Wed, Mar 4
34 °FSunny.12 mph93%30.07 "Hg10 mi
6:50 AM34 °FClear.13 mph93%30.07 "Hg10 mi
6:20 AM34 °FClear.12 mph93%30.07 "Hg10 mi
5:50 AM34 °FClear.12 mph93%30.07 "Hg10 mi
7:20 PM
Tue, Mar 3
41 °FPassing clouds.15 mph100%29.89 "HgN/A
6:50 PM41 °FLight rain. Passing clouds.14 mph93%29.89 "Hg5 mi
6:20 PM41 °FPassing clouds.18 mph87%29.89 "HgN/A
5:50 PM41 °FDrizzle. Broken clouds.13 mph87%29.89 "Hg6 mi
5:20 PM41 °FDrizzle. Broken clouds.17 mph87%29.92 "HgN/A
4:50 PM41 °FDrizzle. Partly sunny.21 mph87%29.92 "HgN/A
4:20 PM45 °FDrizzle. Partly sunny.15 mph66%29.92 "HgN/A
3:50 PM43 °FDrizzle. Partly sunny.9 mph76%29.92 "HgN/A
3:20 PM45 °FBroken clouds.12 mph66%29.95 "HgN/A
2:50 PM43 °FPartly sunny.13 mph71%29.95 "HgN/A
2:20 PM45 °FDrizzle. Broken clouds.12 mph66%29.98 "HgN/A
1:50 PM43 °FBroken clouds.15 mph71%29.98 "HgN/A
1:20 PM45 °FPartly sunny.12 mph66%30.01 "HgN/A
12:50 PM43 °FMostly cloudy.15 mph71%30.01 "HgN/A
12:20 PM43 °FPartly sunny.14 mph71%30.01 "HgN/A
11:50 AM43 °FBroken clouds.16 mph71%30.01 "HgN/A
11:20 AM41 °FMostly cloudy.15 mph76%30.01 "HgN/A
10:50 AM41 °FMore clouds than sun.16 mph76%30.01 "HgN/A
10:20 AM39 °FPartly sunny.13 mph81%30.01 "HgN/A
9:50 AM39 °FBroken clouds.14 mph81%30.01 "HgN/A
9:20 AM39 °FPartly sunny.16 mph81%30.01 "HgN/A
8:50 AM39 °FScattered clouds.14 mph81%29.98 "HgN/A
8:20 AM37 °FSunny.13 mph81%29.98 "Hg10 mi
Weather by CustomWeather, © 2015

See weather overviewHow to use our weather pages